Flag for U.S.A. Weather past 2 weeks in Tyler, Texas, U.S.A.

Now
44 °F

Fog.


Feels Like: 40 °F
Forecast: 46 / 56 °F
Wind: 8 mph from Northeast

Location: Tyler Pounds Field

Current Time: Dec 18, 2014 at 5:49:10 AM

Latest Report: Dec 18, 2014 at 4:53 AM


Visibility: 5 mi

Pressure: 30.11 "Hg

Humidity: 89%

Dew point: 41 °F

Location of TylerLocation

Historic Weather in Tyler — Graph

°F

Tyler temperature yesterday

Maximum temperature yesterday: 48 °F (at 12:53 PM)
Minimum temperature yesterday: 38 °F (at 1:53 AM)
Average temperature yesterday: 44 °F

Past Weeks' High & Low Weather Summary

 TemperatureHumidityPressure
High73 °F (Dec 5, 1:53 PM)97% (Dec 9, 4:53 AM)30.41 "Hg (Dec 9, 4:53 AM)
Low37 °F (Dec 9, 5:53 AM)33% (Dec 15, 2:53 PM)29.80 "Hg (Dec 15, 3:53 AM)
Average55 °F76%30.19 "Hg
* Reported Dec 3 3:53 AM — Dec 18 3:53 AM, Tyler, Weather by CustomWeather, © 2014

Note: Actual official high and low records may vary slightly from our data, if they occured in-between our weather recording intervals... More about our weather records

Advertising

Tyler weather history for previous 24 hours

 ConditionsComfort  
Time TempWeatherWind HumidityBarometerVisibility
3:53 AM
Dec 18
44 °FFog.7 mph89%30.13 "Hg6 mi
2:53 AM44 °FFog.9 mph89%30.13 "Hg5 mi
1:53 AM44 °FLight rain. Low clouds.7 mph89%30.15 "Hg7 mi
12:53 AM44 °FLow clouds.6 mph89%30.16 "Hg9 mi
11:53 PM
Dec 17
44 °FLow clouds.9 mph89%30.16 "Hg10 mi
10:53 PM45 °FMostly cloudy.9 mph90%30.16 "Hg10 mi
9:53 PM45 °FMostly cloudy.7 mph90%30.17 "Hg10 mi
8:53 PM45 °FLight rain. Low clouds.7 mph90%30.16 "Hg8 mi
7:53 PM46 °FLight rain. Fog.5 mph86%30.17 "Hg6 mi
6:53 PM48 °FRain. Overcast.No wind71%30.15 "Hg9 mi
5:53 PM48 °FOvercast.9 mph68%30.11 "Hg10 mi
4:53 PM48 °FMore clouds than sun.9 mph68%30.10 "Hg10 mi
3:53 PM48 °FOvercast.9 mph68%30.11 "Hg10 mi
2:53 PM47 °FLight rain. Overcast.14 mph74%30.12 "Hg9 mi
1:53 PM48 °FMostly cloudy.6 mph61%30.17 "Hg10 mi
12:53 PM48 °FMore clouds than sun.6 mph63%30.20 "Hg10 mi
11:53 AM46 °FCloudy.6 mph66%30.25 "Hg10 mi
10:53 AM45 °FMore clouds than sun.10 mph65%30.27 "Hg10 mi
9:53 AM43 °FOvercast.9 mph71%30.29 "Hg10 mi
8:53 AM42 °FMostly cloudy.7 mph71%30.28 "Hg10 mi
7:53 AM41 °FMostly cloudy.6 mph74%30.29 "Hg10 mi
6:53 AM40 °FOvercast.7 mph77%30.26 "Hg10 mi
5:53 AM39 °FPassing clouds.5 mph79%30.27 "Hg10 mi
Weather by CustomWeather, © 2014

See weather overviewHow to use our weather pages